This demonstration page uses our WeatherBlox Daily Observations layout. Learn more.

36.17497, -115.13722

Hourly Observations for April 27, 2015

Temp ( °F °C ) Dew Point ( °F °C ) Humidity (%) Winds ( mph kmh ) Pressure ( in mb ) Visibility ( mi km ) Precip ( " mm )
12:53 am 00:53 Clear 62 16.7 15 -9.4 16 16 NNW 18 30 30.04 1017 10 16.0934 0 0
1:53 am 01:53 Clear 61 16.1 15 -9.4 17 17 NNW 16 26 30.03 1017 10 16.0934 0 0
2:53 am 02:53 Clear 60 15.6 15 -9.4 17 17 NNW 18 30 30.04 1017 10 16.0934 0 0
3:53 am 03:53 Clear 60 15.6 15 -9.4 17 17 NNW 17 28 30.04 1017 10 16.0934 0 0
4:53 am 04:53 Clear 59 15 15 -9.4 18 18 NNW 21 33 30.04 1017 10 16.0934 0 0
5:53 am 05:53 Sunny 59 15 15 -9.4 18 18 NNW 21 33 30.07 1018 10 16.0934 0 0
6:53 am 06:53 Sunny 60 15.6 16 -8.9 18 18 N 20 31 30.09 1019 10 16.0934 0 0
7:53 am 07:53 Sunny 62 16.7 17 -8.3 17 17 N 21 33 30.1 1019 10 16.0934 0 0
8:53 am 08:53 Sunny 64 17.8 17 -8.3 16 16 N 21 33 30.11 1020 10 16.0934 0 0
9:53 am 09:53 Sunny 67 19.4 17 -8.3 15 15 NNW 18 30 30.11 1020 10 16.0934 0 0
10:53 am 10:53 Sunny 69 20.6 17 -8.3 14 14 NNW 13 20 30.1 1019 10 16.0934 0 0
11:53 am 11:53 Sunny 72 22.2 17 -8.3 12 12 NNW 13 20 30.08 1019 10 16.0934 0 0
12:53 pm 12:53 Sunny 73 22.8 17 -8.3 12 12 VRB 3 6 30.06 1018 10 16.0934 0 0
1:53 pm 13:53 Sunny 76 24.4 17 -8.3 11 11 NNW 8 13 30.03 1017 10 16.0934 0 0
2:53 pm 14:53 Sunny 76 24.4 17 -8.3 11 11 VRB 3 6 30.01 1016 10 16.0934 0 0
3:53 pm 15:53 Sunny 79 26.1 17 -8.3 10 10 ENE 9 15 29.97 1015 10 16.0934 0 0
4:53 pm 16:53 Sunny 81 27.2 16 -8.9 9 9 ENE 8 13 29.96 1015 10 16.0934 0 0
5:53 pm 17:53 Sunny 81 27.2 16 -8.9 9 9 N 10 17 29.95 1014 10 16.0934 0 0
6:53 pm 18:53 Sunny 80 26.7 16 -8.9 9 9 N 9 15 29.96 1014 10 16.0934 0 0
7:53 pm 19:53 Clear 77 25 16 -8.9 10 10 NNE 3 6 29.97 1015 10 16.0934 0 0
8:53 pm 20:53 Clear 75 23.9 19 -7.2 12 12 Calm 30 1016 10 16.0934 0 0
9:53 pm 21:53 Clear 73 22.8 23 -5 15 15 E 10 17 30.02 1017 10 16.0934 0 0
10:53 pm 22:53 Clear 72 22.2 25 -3.9 17 17 ENE 6 9 30.03 1017 10 16.0934 0 0
11:53 pm 23:53 Clear 69 20.6 26 -3.3 20 20 Calm 30.04 1017 10 16.0934 0 0

Powered by AerisWeather